Tracking 17784 objects as of 24-July-2016
HD Live streaming from Space Station
objects crossing your sky now

THORAD AGENA D DEB

Track THORAD AGENA D DEB now!
10-day predictions


NORAD ID: 4171
Int'l Code: 1969-082AP
Perigee: 772.5 km
Apogee: 825.2 km
Inclination: 70.1 °
Period: 100.7 minutes
Semi major axis: 7169 km
RCS: 0.0461 m2 (small)
Launch date: September 30, 1969
Source: United States (US)
Launch site: AIR FORCE WESTERN TEST RANGE (AFWTR)

Note: This is SATELLITE DEBRIS
Your satellite tracking list
Your tracking list is empty





NASA's NSSDC Master Catalog

Two Line Element Set (TLE):
1 04171U 69082AP  16205.05910871  .00000187  00000-0  92404-4 0  9992
2 04171  70.0788  76.8901 0036786 132.4843 227.9401 14.30844745421722
Source of the keplerian elements: AFSPC

N2YO: 886